CZ-6A DEB

Satellite information

Favourite Embed

Satellite Type and Status

DEBRISIN ORBIT

Key statistics

Satellite CZ-6A DEB at a glance.

Uptime

276

Days in orbit

Revolutions

≈ 14.4

Per day

Orbit

LEO

Low Earth Orbit

Inclination

89.0

Latest

Satellite identification and parameters

Extended collection of information and parameters for CZ-6A DEB.

Object identification

Identified? True

Debris? True

Object name: CZ-6A DEB

International designator: 2024-140UG

Object number (NORAD): 61319

Object ID (CCSDS): 61319

Country: PEOPLES REPUBLIC OF CHINA (PRC)

Current information (Y/N): Y

RCS size: SMALL

Orbital parameters

Period: 100.256 minutes

Inclination: 89.0361 deg

SMA: 7148.798 km

Apoapsis: 799.473 km

Periapsis: 741.853 km

RAAN: 320.6765 deg

Eccentricy: 0.00403

Argument of periapsis: 150.9554 deg

Mean anomaly: 209.3899 deg

Mean motion: 14.3632665 rev/day

Mean motion (dot): 0.00003412 rev/day2

B* drag term: 0.0011515 1/REarth

Two-line elements (TLE)

Creation date: May 8, 2025, 10:36 p.m.

Reference frame: TEME

Reference center: EARTH

Epoch: May 8, 2025, 11:55 a.m. UTC

TLE line 0: 0 CZ-6A DEB

TLE line 1: 1 61319U 24140UG 25128.49683333 .00003412 00000-0 11515-2 0 9993

TLE line 2: 2 61319 89.0361 320.6765 0040300 150.9554 209.3899 14.36326650 36133

Live tracking on map

Real-time ground track for satellite CZ-6A DEB.

In-orbit conjunctions

A list of the most updated potential collisions computed for object CZ-6A DEB.

Target Orbit TCA Probability of collision Miss distance Type
FENGYUN 1C DEB SSO 2024-11-21 17:11:38 0.0002631578 337.0 (m) DEBRIS
FENGYUN 1C DEB SSO 2024-10-07 07:46:27 0.0002077103 984.0 (m) DEBRIS

Associated space launch

18 Low Earth Orbit communication satellites with Ku, Q and V band payloads for the G60 constellation operated by Shanghai Spacecom Satellite Technology (SSST) with funding backed by the Shanghai local government. Initial constellation will consist of 1296 satellites by 2027 with long term plans to expand it to 12000 satellites.

CZ-6A DEB was lifted into orbit during the mission ‘Long March 6A | G60 Polar Group 01’, on board a Long March 6A space rocket.

The launch took place on Aug. 6, 2024, 6:42 a.m. from Launch Complex 9A.

For more information about the launch, click the button.

Launch to space Long March 6A | G60 Polar Group 01
Long March 6A | G60 Polar Group 01

Agency: N/A

Status: Launch Successful

Launch date: Aug. 6, 2024, 6:42 a.m. UTC

Rocket: Long March 6A

Launch pad: Launch Complex 9A

Location: Taiyuan Satellite Launch Center, People's Republic of China

...

Latest news about this satellite

News about space launch
Brightness of first Chinese broadband constellation satellites alarms astronomers

The first satellites of a Chinese broadband constellation are significantly brighter than those of Western systems, posing a new challenge for astronomers.

News about space launch
Chinese rocket stage breaks up into cloud of more than 700 pieces of space debris

HELSINKI — A Chinese Long March 6A rocket’s upper stage has fragmented into a cloud of over 700 pieces of space debris, adding to concerns about long-term orbital safety. China […]

News about space launch
China's Thousand Sails Megaconstellation Kicks Off with Dangerous Debris Field

China's Thousand Sails Megaconstellation Kicks Off with Dangerous Debris Field


Newsletter sign-up

Weekly statistics, charts and insights to help you stay on top of the space industry.